TDRS 6

Last updated on Fri Jul 10 2026 00:02:57 GMT+0000 (Coordinated Universal Time)

1 22314U 93003B 26190.02058986 -.00000292 00000+0 00000+0 0 9995 2 22314 14.1830 356.8951 0009122 180.2289 71.0279 1.00263374122627
UTC large
Height (km)
Speed (km/s)
/
Latitude / Longitude
Inclination (degrees)
Orbital Period (minutes)
Azimuth
Elevation
Range (km)
Doppler Factor

Next 0 passes for location: London (51.5072 / 0.1276)

No passes found over London.
TDRS 6